GW7092 Weather Reports


time (UTC)temp
F
wind
direction
speed
knots
gust
knots
rain 1hr
in
rain 24hr
in
rain mn
in
humidity
%
barometer
mb
20260903043854 72 215 0.0 0.0 0.00 0.00 0.00 96 1050.7
20260903043349 71 215 0.0 0.0 0.00 0.00 0.00 96 1050.6
20260903042847 71 215 0.0 0.0 0.00 0.00 0.00 96 1050.6
20260903042343 72 215 0.0 0.0 0.00 0.00 0.00 96 1050.7
20260903041839 71 215 0.0 0.0 0.00 0.00 0.00 95 1050.8
20260903041335 72 215 0.0 0.0 0.00 0.00 0.00 95 1050.8
20260903040831 72 215 0.0 0.0 0.00 0.00 0.00 95 1050.8
20260903040329 72 215 0.0 0.0 0.00 0.00 0.00 95 1050.8
20260903035826 72 215 0.0 0.0 0.00 0.00 0.00 95 1050.5
20260903035321 72 215 0.0 0.0 0.00 0.00 0.00 95 1050.9
20260903034816 72 215 0.0 0.0 0.00 0.00 0.00 94 1050.7
20260903034311 72 215 0.0 0.0 0.00 0.00 0.00 94 1050.6
20260903033807 73 215 0.0 0.0 0.00 0.00 0.00 94 1051.1
20260903033307 73 215 0.0 0.0 0.00 0.00 0.00 94 1050.7
20260903032801 73 215 0.0 0.0 0.00 0.00 0.00 94 1051.0
20260903032257 73 215 0.0 0.0 0.00 0.00 0.00 94 1050.8
20260903031753 73 215 0.0 0.0 0.00 0.00 0.00 94 1051.0
20260903031252 73 215 0.9 0.9 0.00 0.00 0.00 93 1050.9
20260903030748 73 215 0.0 0.0 0.00 0.00 0.00 93 1051.1
20260903030243 73 215 0.0 0.0 0.00 0.00 0.00 93 1050.9
20260903025739 73 215 0.9 0.9 0.00 0.00 0.00 93 1050.9
20260903025234 73 215 0.9 0.9 0.00 0.00 0.00 93 1050.8
20260903024729 73 215 0.9 0.9 0.00 0.00 0.00 93 1051.0
20260903024228 74 215 0.0 0.0 0.00 0.00 0.00 92 1051.1
20260903023724 74 215 0.0 0.0 0.00 0.00 0.00 92 1050.9
20260903023220 74 215 0.0 0.0 0.00 0.00 0.00 92 1050.9
20260903022719 74 215 0.0 0.0 0.00 0.00 0.00 91 1051.1
20260903022218 74 215 0.0 0.0 0.00 0.00 0.00 92 1051.0
20260903021718 74 215 0.9 0.9 0.00 0.00 0.00 92 1051.0
20260903021214 75 215 0.9 0.9 0.00 0.00 0.00 92 1051.2
20260903020713 75 215 0.0 0.9 0.00 0.00 0.00 92 1051.2
20260903020208 75 215 0.9 0.9 0.00 0.00 0.00 91 1051.1
20260903015703 75 215 0.0 0.0 0.00 0.00 0.00 91 1051.0
20260903015159 75 215 0.0 0.0 0.00 0.00 0.00 90 1051.1
20260903014654 76 215 0.0 0.0 0.00 0.00 0.00 90 1050.8
20260903014153 76 215 0.0 0.0 0.00 0.00 0.00 90 1051.1
20260903013648 76 215 0.0 0.0 0.00 0.00 0.00 90 1050.9
20260903013148 76 215 0.9 0.9 0.00 0.00 0.00 89 1050.9
20260903012647 76 215 0.9 0.9 0.00 0.00 0.00 89 1051.1
20260903012146 76 215 0.9 0.9 0.00 0.00 0.00 89 1051.0
20260903011641 76 215 0.0 0.0 0.00 0.00 0.00 89 1050.6
20260903011140 77 215 0.0 0.0 0.00 0.00 0.00 89 1050.8
20260903010636 77 215 0.0 0.0 0.00 0.00 0.00 88 1050.8
20260903010135 78 215 0.0 0.0 0.00 0.00 0.00 88 1050.7
20260903005635 78 215 0.9 0.9 0.00 0.00 0.00 87 1050.7
20260903005130 78 215 0.0 0.0 0.00 0.00 0.00 87 1050.4
20260903004625 78 215 0.0 0.0 0.00 0.00 0.00 86 1050.5
20260903004120 78 215 0.9 0.9 0.00 0.00 0.00 86 1050.4
20260903003616 79 215 0.9 0.9 0.00 0.00 0.00 86 1050.3
20260903003111 79 215 0.9 0.9 0.00 0.00 0.00 85 1050.3
20260903002606 80 215 0.9 0.9 0.00 0.00 0.00 85 1050.1
20260903002100 80 215 0.0 0.9 0.00 0.00 0.00 85 1050.4
20260903001555 80 215 0.9 0.9 0.00 0.00 0.00 83 1050.3
20260903001054 81 214 1.7 0.9 0.00 0.00 0.00 82 1050.2
20260903000550 82 215 0.9 0.9 0.00 0.00 0.00 81 1050.2
20260903000044 82 214 0.9 0.9 0.00 0.00 0.00 80 1050.3
20260902235543 83 214 1.7 0.9 0.00 0.00 0.00 80 1050.3
20260902235039 84 214 1.7 1.7 0.00 0.00 0.00 78 1050.4
20260902234538 85 214 1.7 1.7 0.00 0.00 0.00 76 1050.4
20260902234037 86 214 0.9 0.9 0.00 0.00 0.00 76 1050.4
20260902233532 87 215 1.7 0.9 0.00 0.00 0.00 73 1050.4
20260902233026 89 215 1.7 1.7 0.00 0.00 0.00 70 1050.6
20260902232526 90 215 0.9 1.7 0.00 0.00 0.00 68 1050.2
20260902232026 92 216 1.7 1.7 0.00 0.00 0.00 64 1050.5
20260902231521 93 217 0.9 0.9 0.00 0.00 0.00 61 1050.4
20260902231020 95 246 0.9 0.9 0.00 0.00 0.00 59 1050.5
20260902230515 96 268 0.9 0.9 0.00 0.00 0.00 51 1050.4
20260902230015 96 287 0.0 0.0 0.00 0.00 0.00 57 1050.3
20260902225510 97 293 0.0 0.9 0.00 0.00 0.00 54 1050.4
20260902225009 98 333 0.9 0.9 0.00 0.00 0.00 50 1050.4
20260902224508 98 348 0.0 0.9 0.00 0.00 0.00 48 1050.4
20260902224005 99 3 0.9 0.9 0.00 0.00 0.00 43 1050.3
20260902223501 99 337 0.9 0.9 0.00 0.00 0.00 41 1050.5
20260902223000 99 303 0.9 0.9 0.00 0.00 0.00 43 1050.4
20260902222459 99 294 0.9 0.9 0.00 0.00 0.00 45 1050.5
20260902221958 98 253 0.9 0.9 0.00 0.00 0.00 44 1050.3
20260902221457 99 282 0.9 0.9 0.00 0.00 0.00 38 1050.2
20260902220953 98 297 1.7 1.7 0.00 0.00 0.00 40 1050.2
20260902220453 98 301 1.7 2.6 0.00 0.00 0.00 42 1050.5
20260902215948 98 343 0.9 1.7 0.00 0.00 0.00 41 1050.5
20260902215444 98 304 1.7 1.7 0.00 0.00 0.00 46 1050.5
20260902214940 98 280 1.7 3.5 0.00 0.00 0.00 42 1050.3
20260902214439 98 340 1.7 2.6 0.00 0.00 0.00 43 1050.6
20260902213938 98 355 0.9 2.6 0.00 0.00 0.00 41 1050.3
20260902213435 98 317 1.7 1.7 0.00 0.00 0.00 41 1050.4
20260902212933 97 326 0.9 2.6 0.00 0.00 0.00 41 1050.5
20260902212430 97 29 3.5 3.5 0.00 0.00 0.00 44 1050.5
20260902211926 97 337 3.5 5.2 0.00 0.00 0.00 42 1050.5
20260902211421 97 356 0.9 2.6 0.00 0.00 0.00 42 1050.5
20260902210917 97 297 2.6 6.1 0.00 0.00 0.00 43 1050.7
20260902210416 97 304 1.7 2.6 0.00 0.00 0.00 45 1050.5
20260902205915 97 263 1.7 3.5 0.00 0.00 0.00 43 1050.7
20260902205410 97 33 0.9 3.5 0.00 0.00 0.00 41 1050.6
20260902204906 97 292 1.7 2.6 0.00 0.00 0.00 42 1050.5
20260902204405 97 335 3.5 5.2 0.00 0.00 0.00 42 1050.9
20260902203901 97 326 1.7 3.5 0.00 0.00 0.00 44 1050.9
20260902203356 97 283 2.6 3.5 0.00 0.00 0.00 43 1050.7
20260902202855 96 342 1.7 5.2 0.00 0.00 0.00 44 1050.8
20260902202351 97 318 2.6 6.1 0.00 0.00 0.00 44 1050.7
20260902201848 96 272 1.7 3.5 0.00 0.00 0.00 43 1051.2
20260902201348 97 62 2.6 3.5 0.00 0.00 0.00 42 1051.0
20260902200843 96 1 0.9 3.5 0.00 0.00 0.00 43 1051.0
20260902200338 97 284 4.3 6.1 0.00 0.00 0.00 42 1050.9
20260902195833 97 247 3.5 3.5 0.00 0.00 0.00 44 1050.5
20260902195332 96 311 2.6 3.5 0.00 0.00 0.00 44 1051.1
20260902194828 96 337 3.5 5.2 0.00 0.00 0.00 44 1051.1
20260902194327 96 295 2.6 5.2 0.00 0.00 0.00 45 1051.1
20260902193823 96 319 1.7 2.6 0.00 0.00 0.00 45 1051.0
20260902193319 96 326 3.5 5.2 0.00 0.00 0.00 45 1051.1
20260902192818 96 263 1.7 3.5 0.00 0.00 0.00 44 1051.1
20260902192316 96 303 4.3 8.7 0.00 0.00 0.00 44 1051.4
20260902191816 96 265 3.5 5.2 0.00 0.00 0.00 45 1051.9
20260902191311 96 263 1.7 5.2 0.00 0.00 0.00 44 1051.3
20260902190807 96 295 1.7 7.8 0.00 0.00 0.00 43 1051.4
20260902190306 96 331 4.3 7.0 0.00 0.00 0.00 44 1051.9
20260902185802 95 236 2.6 3.5 0.00 0.00 0.00 47 1051.6
20260902185257 95 327 4.3 7.0 0.00 0.00 0.00 46 1051.8
20260902184753 95 280 5.2 7.0 0.00 0.00 0.00 44 1051.7
20260902184248 95 299 2.6 7.0 0.00 0.00 0.00 46 1051.8
20260902183744 95 281 6.1 7.0 0.00 0.00 0.00 43 1051.7
20260902183240 96 331 7.0 7.8 0.00 0.00 0.00 42 1052.0
20260902182736 95 260 1.7 3.5 0.00 0.00 0.00 46 1051.5
20260902182232 95 305 1.7 2.6 0.00 0.00 0.00 48 1051.8
20260902181728 95 269 3.5 5.2 0.00 0.00 0.00 49 1051.7
20260902181228 96 13 2.6 3.5 0.00 0.00 0.00 48 1051.8
20260902180723 95 247 1.7 3.5 0.00 0.00 0.00 51 1051.7
20260902180218 94 309 1.7 3.5 0.00 0.00 0.00 51 1051.9
20260902175713 94 275 3.5 8.7 0.00 0.00 0.00 51 1051.9
20260902175209 94 309 6.1 7.8 0.00 0.00 0.00 48 1052.1
20260902174705 94 245 3.5 5.2 0.00 0.00 0.00 50 1052.1
20260902174201 94 356 2.6 6.1 0.00 0.00 0.00 50 1052.3
20260902173656 95 26 0.9 3.5 0.00 0.00 0.00 52 1052.1
20260902173150 94 281 0.9 2.6 0.00 0.00 0.00 52 1051.9
20260902172645 93 320 3.5 7.0 0.00 0.00 0.00 53 1052.5
20260902172144 93 297 3.5 7.0 0.00 0.00 0.00 50 1052.3
20260902171639 93 301 4.3 5.2 0.00 0.00 0.00 53 1052.2
20260902171135 93 271 4.3 5.2 0.00 0.00 0.00 50 1052.3
20260902170631 93 300 2.6 6.1 0.00 0.00 0.00 51 1052.6
20260902170126 93 260 4.3 5.2 0.00 0.00 0.00 52 1052.5
20260902165621 93 347 3.5 6.1 0.00 0.00 0.00 51 1052.2
20260902165121 92 312 1.7 5.2 0.00 0.00 0.00 53 1052.4
20260902164616 93 323 4.3 6.1 0.00 0.00 0.00 52 1052.3
20260902164115 93 249 3.5 3.5 0.00 0.00 0.00 54 1052.8
20260902163610 93 289 2.6 3.5 0.00 0.00 0.00 56 1052.8
20260902163109 93 273 1.7 5.2 0.00 0.00 0.00 55 1052.6
20260902162608 92 334 1.7 6.1 0.00 0.00 0.00 55 1052.7
20260902162103 92 297 1.7 5.2 0.00 0.00 0.00 56 1052.8
20260902161558 92 353 0.9 3.5 0.00 0.00 0.00 58 1053.1
20260902161054 92 261 1.7 2.6 0.00 0.00 0.00 58 1053.2
20260902160550 92 326 3.5 3.5 0.00 0.00 0.00 56 1053.2
20260902160045 92 322 1.7 2.6 0.00 0.00 0.00 58 1053.1
20260902155538 92 292 2.6 2.6 0.00 0.00 0.00 57 1053.1
20260902155037 92 336 1.7 5.2 0.00 0.00 0.00 57 1053.1
20260902154533 92 308 3.5 3.5 0.00 0.00 0.00 58 1053.2
20260902154033 91 38 0.0 2.6 0.00 0.00 0.00 61 1053.1
20260902153531 90 335 3.5 3.5 0.00 0.00 0.00 59 1053.3
20260902153027 91 316 2.6 2.6 0.00 0.00 0.00 59 1053.1
20260902152523 90 44 0.9 3.5 0.00 0.00 0.00 62 1053.4
20260902152019 89 40 3.5 3.5 0.00 0.00 0.00 63 1053.2
20260902151514 89 54 0.9 5.2 0.00 0.00 0.00 64 1053.2
20260902151013 90 32 3.5 5.2 0.00 0.00 0.00 60 1053.3
20260902150509 90 332 0.9 3.5 0.00 0.00 0.00 65 1053.3
20260902150010 89 305 2.6 2.6 0.00 0.00 0.00 63 1053.1
20260902145505 89 240 0.9 2.6 0.00 0.00 0.00 62 1053.1
20260902144959 89 335 1.7 1.7 0.00 0.00 0.00 63 1053.2
20260902144456 88 329 0.9 1.7 0.00 0.00 0.00 65 1053.1
20260902143955 87 83 0.9 1.7 0.00 0.00 0.00 65 1053.0
20260902143451 87 327 2.6 2.6 0.00 0.00 0.00 66 1053.0
20260902142946 87 297 0.9 2.6 0.00 0.00 0.00 67 1053.2
20260902142443 86 352 1.7 1.7 0.00 0.00 0.00 68 1053.0
20260902141943 86 50 1.7 1.7 0.00 0.00 0.00 68 1053.1
20260902141438 85 309 2.6 2.6 0.00 0.00 0.00 69 1053.1
20260902140937 85 292 2.6 2.6 0.00 0.00 0.00 69 1052.8
20260902140433 84 334 2.6 2.6 0.00 0.00 0.00 71 1053.2
20260902135932 84 330 3.5 5.2 0.00 0.00 0.00 70 1053.2
20260902135429 83 293 2.6 2.6 0.00 0.00 0.00 73 1053.3
20260902134927 83 247 2.6 3.5 0.00 0.00 0.00 74 1053.1
20260902134423 83 294 3.5 3.5 0.00 0.00 0.00 74 1053.1
20260902133919 82 255 0.0 2.6 0.00 0.00 0.00 75 1053.0
20260902133419 82 335 3.5 3.5 0.00 0.00 0.00 76 1053.1
20260902132914 81 289 0.9 1.7 0.00 0.00 0.00 79 1053.3
20260902132409 81 299 1.7 3.5 0.00 0.00 0.00 79 1053.5
20260902131904 80 262 2.6 5.2 0.00 0.00 0.00 81 1053.2
20260902131401 79 301 1.7 1.7 0.00 0.00 0.00 85 1053.5
20260902130859 77 62 0.0 0.9 0.00 0.00 0.00 94 1053.5
20260902130356 76 67 0.0 0.9 0.00 0.00 0.00 98 1053.5
20260902125850 75 56 0.9 0.9 0.00 0.00 0.00 99 1053.7
20260902125347 74 83 0.0 0.0 0.00 0.00 0.00 99 1053.6
20260902124843 73 128 0.0 0.0 0.00 0.00 0.00 99 1053.4
20260902124338 71 129 0.0 0.0 0.00 0.00 0.00 99 1053.3
20260902123833 71 129 0.0 0.0 0.00 0.00 0.00 99 1053.3
20260902123330 71 129 0.0 0.0 0.00 0.00 0.00 99 1053.4
20260902122828 70 129 0.0 0.0 0.00 0.00 0.00 99 1053.3
20260902122324 70 129 0.0 0.0 0.00 0.00 0.00 99 1053.3
20260902121823 69 129 0.0 0.0 0.00 0.00 0.00 99 1053.3
20260902121319 69 129 0.0 0.0 0.00 0.00 0.00 99 1053.3
20260902120814 69 129 0.0 0.0 0.00 0.00 0.00 99 1053.3
20260902120311 68 129 0.0 0.0 0.00 0.00 0.00 99 1053.1
20260902115805 68 129 0.0 0.0 0.00 0.00 0.00 98 1053.3
20260902115301 68 129 0.0 0.0 0.00 0.00 0.00 98 1053.1
20260902114757 67 129 0.0 0.0 0.00 0.00 0.00 98 1053.0
20260902114254 67 129 0.0 0.0 0.00 0.00 0.00 98 1053.2
20260902113753 67 129 0.0 0.0 0.00 0.00 0.00 98 1053.2
20260902113249 67 129 0.0 0.0 0.00 0.00 0.00 98 1052.7
20260902112748 67 129 0.0 0.0 0.00 0.00 0.00 98 1053.0
20260902112245 67 129 0.0 0.0 0.00 0.00 0.00 98 1052.8
20260902111740 67 129 0.0 0.0 0.00 0.00 0.00 98 1052.5
20260902111237 67 129 0.0 0.0 0.00 0.00 0.00 98 1052.5
20260902110732 67 129 0.0 0.0 0.00 0.00 0.00 98 1052.5
20260902110228 67 129 0.0 0.0 0.00 0.00 0.00 98 1052.4
20260902105727 67 129 0.0 0.0 0.00 0.00 0.00 98 1052.4
20260902105223 67 129 0.0 0.0 0.00 0.00 0.00 98 1052.4
20260902104718 68 129 0.0 0.0 0.00 0.00 0.00 98 1052.5
20260902104214 68 129 0.0 0.0 0.00 0.00 0.00 98 1052.5
20260902103713 67 129 0.0 0.0 0.00 0.00 0.00 98 1052.5
20260902103208 67 129 0.0 0.0 0.00 0.00 0.00 98 1052.4
20260902102704 67 129 0.0 0.0 0.00 0.00 0.00 98 1052.3
20260902102201 67 129 0.0 0.0 0.00 0.00 0.00 98 1052.3
20260902101701 67 129 0.0 0.0 0.00 0.00 0.00 98 1052.2
20260902101156 67 129 0.0 0.0 0.00 0.00 0.00 98 1052.3
20260902100655 67 129 0.0 0.0 0.00 0.00 0.00 98 1052.4
20260902100151 67 129 0.0 0.0 0.00 0.00 0.00 98 1052.3
20260902095650 67 129 0.0 0.0 0.00 0.00 0.00 98 1052.1
20260902095144 67 129 0.0 0.0 0.00 0.00 0.00 98 1052.2
20260902094639 67 129 0.0 0.0 0.00 0.00 0.00 98 1052.1
20260902094136 67 129 0.0 0.0 0.00 0.00 0.00 98 1052.1
20260902093634 67 129 0.0 0.0 0.00 0.00 0.00 98 1052.1
20260902093130 67 129 0.0 0.0 0.00 0.00 0.00 98 1052.0
20260902092624 67 129 0.0 0.0 0.00 0.00 0.00 98 1051.8
20260902092119 67 129 0.0 0.0 0.00 0.00 0.00 98 1052.1
20260902091614 67 129 0.0 0.0 0.00 0.00 0.00 98 1051.9
20260902091111 67 129 0.0 0.0 0.00 0.00 0.00 98 1051.8
20260902090607 67 129 0.0 0.0 0.00 0.00 0.00 98 1052.0
20260902090105 67 129 0.0 0.0 0.00 0.00 0.00 98 1051.9
20260902085600 68 129 0.0 0.0 0.00 0.00 0.00 98 1051.8
20260902085055 67 129 0.0 0.0 0.00 0.00 0.00 98 1052.0
20260902084551 67 129 0.0 0.0 0.00 0.00 0.00 98 1052.1
20260902084047 68 129 0.0 0.0 0.00 0.00 0.00 98 1051.9
20260902083542 68 129 0.0 0.0 0.00 0.00 0.00 98 1051.5
20260902083042 68 129 0.0 0.0 0.00 0.00 0.00 98 1051.8
20260902082537 68 129 0.0 0.0 0.00 0.00 0.00 98 1051.9
20260902082034 68 129 0.0 0.0 0.00 0.00 0.00 98 1051.8
20260902081530 68 129 0.0 0.0 0.00 0.00 0.00 98 1051.9
20260902081030 69 129 0.0 0.0 0.00 0.00 0.00 98 1051.9
20260902080525 68 129 0.0 0.0 0.00 0.00 0.00 98 1051.9
20260902080022 68 129 0.0 0.0 0.00 0.00 0.00 98 1051.7
20260902075516 68 129 0.0 0.0 0.00 0.00 0.00 98 1051.7
20260902075012 68 129 0.0 0.0 0.00 0.00 0.00 98 1051.7
20260902074507 68 129 0.0 0.0 0.00 0.00 0.00 98 1051.7
20260902074007 69 129 0.0 0.0 0.00 0.00 0.00 98 1052.0
20260902073503 69 129 0.0 0.0 0.00 0.00 0.00 98 1051.7
20260902072959 69 129 0.0 0.0 0.00 0.00 0.00 98 1051.5
20260902072454 69 129 0.0 0.0 0.00 0.00 0.00 98 1051.7
20260902071951 68 129 0.0 0.0 0.00 0.00 0.00 98 1051.7
20260902071450 68 129 0.0 0.0 0.00 0.00 0.00 97 1051.5
20260902070947 68 129 0.0 0.0 0.00 0.00 0.00 97 1051.4
20260902070442 69 129 0.0 0.0 0.00 0.00 0.00 98 1051.6
20260902065941 69 129 0.0 0.0 0.00 0.00 0.00 98 1051.7
20260902065436 69 129 0.0 0.0 0.00 0.00 0.00 98 1051.9
20260902064931 69 129 0.0 0.0 0.00 0.00 0.00 97 1051.5
20260902064427 69 129 0.0 0.0 0.00 0.00 0.00 97 1051.6
20260902063922 69 129 0.0 0.0 0.00 0.00 0.00 97 1051.5
20260902063422 70 129 0.0 0.0 0.00 0.00 0.00 97 1051.7
20260902062917 70 129 0.0 0.0 0.00 0.00 0.00 98 1051.9
20260902062416 69 129 0.0 0.0 0.00 0.00 0.00 98 1051.7
20260902061911 69 129 0.0 0.0 0.00 0.00 0.00 97 1051.7
20260902061406 70 129 0.0 0.0 0.00 0.00 0.00 97 1052.1
20260902060902 70 129 0.0 0.0 0.00 0.00 0.00 97 1052.0
20260902060358 70 129 0.0 0.0 0.00 0.00 0.00 97 1051.9
20260902055854 69 96 0.0 0.0 0.00 0.00 0.00 97 1052.0
20260902055350 70 93 0.0 0.0 0.00 0.00 0.00 97 1052.0
20260902054845 70 84 0.0 0.0 0.00 0.00 0.00 97 1051.9
20260902054340 69 93 1.7 1.7 0.00 0.00 0.00 97 1052.1
20260902053835 69 205 0.0 0.0 0.00 0.00 0.00 97 1052.0
20260902053330 69 205 0.0 0.0 0.00 0.00 0.00 97 1051.9
20260902052829 69 205 0.0 0.0 0.00 0.00 0.00 97 1052.1
20260902052325 69 205 0.0 0.0 0.00 0.00 0.00 97 1052.0
20260902051820 69 205 0.0 0.0 0.00 0.00 0.00 97 1051.8
20260902051319 70 205 0.0 0.0 0.00 0.00 0.00 97 1051.6
20260902050814 70 205 0.0 0.0 0.00 0.00 0.00 97 1051.7
20260902050314 71 205 0.0 0.0 0.00 0.00 0.00 97 1051.8
20260902045809 71 205 0.0 0.0 0.00 0.00 0.00 97 1051.7
20260902045306 70 205 0.0 0.0 0.00 0.00 0.00 97 1051.7
20260902044801 70 205 0.0 0.0 0.00 0.00 0.00 97 1051.8
20260902044256 70 205 0.0 0.0 0.00 0.00 0.00 97 1051.8